Content
SEND FEEDBACK

Daily
Averages
Monthly
Summary
United States of America

BAYSIDE, NEW YORK


Home > North America > United States > New York
Elevation: 11 feet     Latitude: 40 46N     Longitude: 073 54W

WEATHER
 
SELECT A DAY
Number of Records: 191,175;   Date Range: 1/1/95 - 8/12/14
 
SHARE

PRINT THIS DATA

[ ← Previous Day ]
WEATHER ALMANAC - APRIL 30, 2013
[ Next Day → ]
[ °C ]   °F
Weather ElementAverageHighLow
Temperature56.6 °F64.9 °F (2:51 pm)51.1 °F (6:51 am)
Dewpoint34.6 °F46 °F (4:51 am)18 °F (4:51 pm)
Humidity50.6 %83 % (6:51 am)17 % (4:51 pm)
Barometer30.28 in30.34 in (9:51 pm)30.21 in (2:51 am)
Wind Speed8.8 mph15 mph (12:51 pm)
Wind Gust19.6 mph (2:51 pm)
Weather ElementAverage
Visibility10 mi
Wind DirectionESE (100.8 °)

Weather ElementTotal
Precipitation---
Heating Degree Days7 (Base 65)
Growing Degree Days8 (Base 50)
Averaged from 25 records on April 30, 2013
WEATHER CONDITIONS BREAKOUT
WIND DIRECTION BREAKOUT
WEATHER BY HOUR - APRIL 30, 2013
[ °C ]   °F
Local TimeTemperatureDewpointHumidityBarometerVisibilityWind DirectionWind SpeedGust SpeedPrecipitationEventsConditions
12:51 AM54.0 °F45.0 °F72 %30.22 in10.0 miSE (140°)5.8 mphOvercast
1:51 AM53.1 °F45.0 °F74 %30.22 in10.0 miESE (120°)4.6 mphOvercast
2:51 AM53.1 °F45.0 °F74 %30.21 in10.0 miESE (110°)4.6 mphOvercast
3:33 AM53.6 °F44.6 °F72 %30.21 in10.0 miEast (100°)5.8 mphOvercast
3:51 AM53.1 °F45.0 °F74 %30.22 in10.0 miNE (50°)4.6 mphOvercast
4:51 AM52.0 °F46.0 °F80 %30.22 in10.0 miNE (50°)6.9 mphOvercast
5:51 AM52.0 °F45.0 °F77 %30.24 in10.0 miNE (50°)8.1 mphOvercast
6:51 AM51.1 °F46.0 °F83 %30.26 in10.0 miNE (50°)6.9 mphOvercast
7:51 AM52.0 °F45.0 °F77 %30.28 in10.0 miNE (50°)6.9 mphMostly Cloudy
8:51 AM52.0 °F45.0 °F77 %30.29 in10.0 miNE (40°)11.5 mphMostly Cloudy
9:51 AM54.0 °F44.1 °F69 %30.30 in10.0 miNE (50°)11.5 mphMostly Cloudy
10:51 AM55.9 °F45.0 °F67 %30.30 in10.0 miENE (60°)9.2 mphMostly Cloudy
11:51 AM57.9 °F45.0 °F62 %30.30 in10.0 miNE (50°)13.8 mphScattered Clouds
12:51 PM60.1 °F44.1 °F55 %30.29 in10.0 miNE (40°)15.0 mphMostly Cloudy
1:51 PM64.4 °F21.2 °F19 %30.28 in10.0 miSSE (150°)15.0 mphMostly Cloudy
2:51 PM64.9 °F21.9 °F19 %30.29 in10.0 miEast (100°)12.7 mph19.6 mphMostly Cloudy
3:51 PM64.9 °F19.9 °F18 %30.29 in10.0 miESE (120°)9.2 mph18.4 mphScattered Clouds
4:51 PM64.0 °F18.0 °F17 %30.30 in10.0 miSSE (160°)12.7 mphScattered Clouds
5:51 PM62.1 °F19.0 °F19 %30.31 in10.0 miSSE (160°)10.4 mphScattered Clouds
6:51 PM61.0 °F21.0 °F21 %30.31 in10.0 miSouth (170°)11.5 mphScattered Clouds
7:51 PM59.0 °F21.9 °F24 %30.32 in10.0 miSSE (160°)9.2 mphScattered Clouds
8:51 PM57.0 °F19.9 °F24 %30.33 in10.0 miSE (130°)8.1 mphPartly Cloudy
9:51 PM55.9 °F21.0 °F26 %30.34 in10.0 miSSE (160°)6.9 mphPartly Cloudy
10:51 PM55.0 °F24.1 °F30 %30.33 in10.0 miSE (130°)5.8 mphClear
11:51 PM54.0 °F26.1 °F34 %30.33 in10.0 miESE (120°)3.5 mphClear
Hourly data recorded from KLGA, located miles away from Bayside, New York







STORIES FROM OUR PARTNERS